Home > Time Zones > World Clock > Weather > Yemen > Aden > Past weeks

Flag Weather past 2 weeks in Aden, Yemen

Now
84 °F

Passing clouds.


Feels Like: 87 °F
Forecast: 80 / 84 °F
Wind: 15 mph from Southeast

Location: Aden

Current Time: Nov 22, 2014 at 12:14:54 PM

Latest Report: Nov 22, 2014 at 12:00 PM


Visibility: N/A

Pressure: 30.01 "Hg

Humidity: 58%

Dew point: 68 °F

Location of AdenLocation

Historic Weather in Aden — Graph

°F

Aden temperature yesterday

Maximum temperature yesterday: 86 °F (at 10:00 AM)
Minimum temperature yesterday: 81 °F (at 4:00 AM)
Average temperature yesterday: 82 °F

Past Weeks' High & Low Weather Summary

 TemperatureHumidityPressure
High90 °F (Nov 10, 2:00 PM)78% (Nov 22, 4:00 AM)30.07 "Hg (Nov 22, 4:00 AM)
Low73 °F (Nov 15, 6:00 AM)43% (Nov 9, 2:00 PM)29.65 "Hg (Nov 14, 7:00 PM)
Average83 °F58%29.95 "Hg
* Reported Nov 7 11:00 AM — Nov 22 11:00 AM, Aden, Weather by CustomWeather, © 2014

Note: Actual official high and low records may vary slightly from our data, if they occured in-between our weather recording intervals... More about our weather records

Advertising

Aden weather history for previous 24 hours

 ConditionsComfort  
Time TempWeatherWind HumidityBarometerVisibility
11:00 AM
Nov 22
84 °FPassing clouds.14 mph55%30.01 "HgN/A
10:00 AM84 °FPassing clouds.12 mph58%30.04 "HgN/A
9:00 AM82 °FPassing clouds.9 mph58%30.04 "HgN/A
8:00 AM77 °FPassing clouds.7 mph65%30.04 "HgN/A
7:00 AM75 °FSunny.5 mph78%30.01 "Hg10 mi
6:00 AM75 °FPassing clouds.5 mph74%30.01 "HgN/A
5:00 AM75 °FPassing clouds.3 mph74%29.98 "HgN/A
4:00 AM75 °FPassing clouds.2 mph78%29.98 "HgN/A
3:00 AM77 °FPassing clouds.5 mph74%29.98 "HgN/A
2:00 AM77 °FPassing clouds.5 mph74%29.98 "HgN/A
1:00 AM79 °FPassing clouds.9 mph70%29.98 "HgN/A
12:00 AM81 °FPassing clouds.10 mph70%29.98 "HgN/A
9:00 PM
Nov 21
81 °FPassing clouds.9 mph66%30.01 "HgN/A
8:00 PM81 °FPassing clouds.9 mph66%29.98 "HgN/A
7:00 PM82 °FPassing clouds.13 mph62%29.98 "HgN/A
6:00 PM82 °FPassing clouds.14 mph62%29.95 "HgN/A
5:00 PM84 °FPassing clouds.15 mph58%29.92 "HgN/A
4:00 PM84 °FPassing clouds.17 mph58%29.92 "HgN/A
Weather by CustomWeather, © 2014

See weather overviewHow to use our weather pages